Time,TemperatureF,DewpointF,PressureIn,WindDirection,WindDirectionDegrees,WindSpeedMPH,WindSpeedGustMPH,Humidity,HourlyPrecipIn,Conditions,Clouds,dailyrainin,SoftwareType,DateUTC
2013-09-20 00:14:00,56.0,51.5,30.08,NNW,337,0.0,12.0,85,0.00,,,-99.99,Weather View 32 v60,2013-09-20 05:14:00,
2013-09-20 00:29:00,55.0,50.9,30.08,NNW,337,0.0,12.0,86,0.00,,,-99.99,Weather View 32 v60,2013-09-20 05:29:00,
2013-09-20 00:44:00,54.0,49.9,30.09,NNW,337,0.0,9.0,86,0.00,,,-99.99,Weather View 32 v60,2013-09-20 05:44:00,
2013-09-20 00:59:00,53.0,48.3,30.08,West,270,0.0,9.0,84,0.00,,,-99.99,Weather View 32 v60,2013-09-20 05:59:00,
2013-09-20 01:14:00,53.0,48.6,30.08,WNW,292,0.0,7.0,85,0.00,,,-99.99,Weather View 32 v60,2013-09-20 06:14:00,
2013-09-20 01:29:00,53.0,48.6,30.09,NNW,337,0.0,7.0,85,0.00,,,-99.99,Weather View 32 v60,2013-09-20 06:29:00,
2013-09-20 01:44:00,53.0,48.6,30.09,WSW,247,0.0,9.0,85,0.00,,,-99.99,Weather View 32 v60,2013-09-20 06:44:00,
2013-09-20 01:49:00,53.0,48.6,30.09,WSW,247,0.0,9.0,85,0.00,,,-99.99,Weather View 32 v60,2013-09-20 06:49:00,
2013-09-20 01:59:00,53.0,48.3,30.08,SW,225,0.0,9.0,84,0.00,,,-99.99,Weather View 32 v60,2013-09-20 06:59:00,
2013-09-20 02:14:00,53.0,48.0,30.09,West,270,0.0,15.0,83,0.00,,,-99.99,Weather View 32 v60,2013-09-20 07:14:00,
2013-09-20 02:29:00,53.0,48.0,30.08,WNW,292,0.0,15.0,83,0.00,,,-99.99,Weather View 32 v60,2013-09-20 07:29:00,
2013-09-20 02:44:00,52.0,47.0,30.09,NW,315,1.0,15.0,83,0.00,,,-99.99,Weather View 32 v60,2013-09-20 07:44:00,
2013-09-20 02:50:00,52.0,47.0,30.09,NW,315,1.0,15.0,83,0.00,,,-99.99,Weather View 32 v60,2013-09-20 07:50:00,
2013-09-20 02:59:00,52.0,47.0,30.09,NW,315,0.0,16.0,83,0.00,,,-99.99,Weather View 32 v60,2013-09-20 07:59:00,
2013-09-20 03:14:00,52.0,47.0,30.09,WNW,292,0.0,16.0,83,0.00,,,-99.99,Weather View 32 v60,2013-09-20 08:14:00,
2013-09-20 03:29:00,51.0,46.3,30.09,NNW,337,0.0,16.0,84,0.00,,,-99.99,Weather View 32 v60,2013-09-20 08:29:00,
2013-09-20 03:44:00,51.0,46.6,30.10,North,360,0.0,16.0,85,0.00,,,-99.99,Weather View 32 v60,2013-09-20 08:44:00,
2013-09-20 03:50:00,51.0,46.6,30.10,North,360,0.0,16.0,85,0.00,,,-99.99,Weather View 32 v60,2013-09-20 08:50:00,
2013-09-20 03:59:00,51.0,46.6,30.10,WNW,292,0.0,12.0,85,0.00,,,-99.99,Weather View 32 v60,2013-09-20 08:59:00,
2013-09-20 04:14:00,50.0,45.7,30.10,NNW,337,0.0,11.0,85,0.00,,,-99.99,Weather View 32 v60,2013-09-20 09:14:00,
2013-09-20 04:29:00,50.0,46.0,30.10,NNW,337,0.0,10.0,86,0.00,,,-99.99,Weather View 32 v60,2013-09-20 09:29:00,
2013-09-20 04:44:00,50.0,46.0,30.10,NNW,337,7.0,10.0,86,0.00,,,-99.99,Weather View 32 v60,2013-09-20 09:44:00,
2013-09-20 04:51:00,50.0,46.0,30.10,NNW,337,7.0,10.0,86,0.00,,,-99.99,Weather View 32 v60,2013-09-20 09:51:00,
2013-09-20 04:59:00,50.0,46.0,30.10,WNW,292,0.0,12.0,86,0.00,,,-99.99,Weather View 32 v60,2013-09-20 09:59:00,
2013-09-20 05:14:00,50.0,46.0,30.10,WNW,292,0.0,12.0,86,0.00,,,-99.99,Weather View 32 v60,2013-09-20 10:14:00,
2013-09-20 05:29:00,50.0,46.3,30.10,WNW,292,0.0,12.0,87,0.00,,,-99.99,Weather View 32 v60,2013-09-20 10:29:00,
2013-09-20 05:44:00,49.0,45.3,30.10,WNW,292,0.0,13.0,87,0.00,,,-99.99,Weather View 32 v60,2013-09-20 10:44:00,
2013-09-20 05:51:00,49.0,45.3,30.10,WNW,292,0.0,13.0,87,0.00,,,-99.99,Weather View 32 v60,2013-09-20 10:51:00,
2013-09-20 05:59:00,49.0,45.3,30.11,NNW,337,0.0,13.0,87,0.00,,,-99.99,Weather View 32 v60,2013-09-20 10:59:00,
2013-09-20 06:14:00,49.0,45.3,30.10,NW,315,0.0,17.0,87,0.00,,,-99.99,Weather View 32 v60,2013-09-20 11:14:00,
2013-09-20 06:29:00,49.0,45.3,30.11,WSW,247,0.0,17.0,87,0.00,,,-99.99,Weather View 32 v60,2013-09-20 11:29:00,
2013-09-20 06:44:00,49.0,45.3,30.12,WNW,292,0.0,17.0,87,0.00,,,-99.99,Weather View 32 v60,2013-09-20 11:44:00,
2013-09-20 06:52:00,49.0,45.3,30.12,WNW,292,0.0,17.0,87,0.00,,,-99.99,Weather View 32 v60,2013-09-20 11:52:00,
2013-09-20 06:59:00,48.0,44.3,30.12,West,270,0.0,17.0,87,0.00,,,-99.99,Weather View 32 v60,2013-09-20 11:59:00,
2013-09-20 07:14:00,48.0,44.0,30.12,West,270,0.0,11.0,86,0.00,,,-99.99,Weather View 32 v60,2013-09-20 12:14:00,
2013-09-20 07:29:00,48.0,44.0,30.13,ESE,112,0.0,10.0,86,0.00,,,-99.99,Weather View 32 v60,2013-09-20 12:29:00,
2013-09-20 07:44:00,50.0,46.3,30.12,West,270,0.0,7.0,87,0.00,,,-99.99,Weather View 32 v60,2013-09-20 12:44:00,
2013-09-20 07:52:00,50.0,46.3,30.12,West,270,0.0,7.0,87,0.00,,,-99.99,Weather View 32 v60,2013-09-20 12:52:00,
2013-09-20 07:59:00,51.0,46.6,30.13,NNW,337,0.0,10.0,85,0.00,,,-99.99,Weather View 32 v60,2013-09-20 12:59:00,
2013-09-20 08:14:00,52.0,47.0,30.13,NNW,337,0.0,10.0,83,0.00,,,-99.99,Weather View 32 v60,2013-09-20 13:14:00,
2013-09-20 08:29:00,52.0,46.7,30.13,NNW,337,2.0,12.0,82,0.00,,,-99.99,Weather View 32 v60,2013-09-20 13:29:00,
2013-09-20 08:44:00,53.0,47.6,30.13,NW,315,3.0,15.0,82,0.00,,,-99.99,Weather View 32 v60,2013-09-20 13:44:00,
2013-09-20 08:53:00,53.0,47.6,30.13,NW,315,3.0,15.0,82,0.00,,,-99.99,Weather View 32 v60,2013-09-20 13:53:00,
2013-09-20 08:59:00,54.0,48.3,30.14,NNW,337,4.0,16.0,81,0.00,,,-99.99,Weather View 32 v60,2013-09-20 13:59:00,
2013-09-20 09:14:00,55.0,47.6,30.13,WNW,292,2.0,16.0,76,0.00,,,-99.99,Weather View 32 v60,2013-09-20 14:14:00,
2013-09-20 09:29:00,56.0,48.5,30.13,NNE,22,0.0,17.0,76,0.00,,,-99.99,Weather View 32 v60,2013-09-20 14:29:00,
2013-09-20 09:44:00,56.0,47.8,30.13,ENE,67,0.0,20.0,74,0.00,,,-99.99,Weather View 32 v60,2013-09-20 14:44:00,
2013-09-20 09:54:00,56.0,47.8,30.13,ENE,67,0.0,20.0,74,0.00,,,-99.99,Weather View 32 v60,2013-09-20 14:54:00,
2013-09-20 09:59:00,56.0,47.4,30.13,WNW,292,2.0,20.0,73,0.00,,,-99.99,Weather View 32 v60,2013-09-20 14:59:00,
2013-09-20 10:14:00,57.0,46.9,30.12,NW,315,7.0,20.0,69,0.00,,,-99.99,Weather View 32 v60,2013-09-20 15:14:00,
2013-09-20 10:29:00,58.0,47.5,30.12,NNW,337,10.0,20.0,68,0.00,,,-99.99,Weather View 32 v60,2013-09-20 15:29:00,
2013-09-20 10:44:00,59.0,47.6,30.12,West,270,0.0,20.0,66,0.00,,,-99.99,Weather View 32 v60,2013-09-20 15:44:00,
2013-09-20 10:59:00,60.0,47.8,30.11,North,360,1.0,20.0,64,0.00,,,-99.99,Weather View 32 v60,2013-09-20 15:59:00,
2013-09-20 11:14:00,60.0,47.3,30.10,NW,315,0.0,20.0,63,0.00,,,-99.99,Weather View 32 v60,2013-09-20 16:14:00,
2013-09-20 11:29:00,61.0,47.9,30.10,WSW,247,0.0,20.0,62,0.00,,,-99.99,Weather View 32 v60,2013-09-20 16:29:00,
2013-09-20 11:44:00,61.0,47.0,30.10,NNW,337,6.0,22.0,60,0.00,,,-99.99,Weather View 32 v60,2013-09-20 16:44:00,
2013-09-20 11:55:00,61.0,47.0,30.10,NNW,337,6.0,22.0,60,0.00,,,-99.99,Weather View 32 v60,2013-09-20 16:55:00,
2013-09-20 12:14:00,62.0,45.6,30.08,WNW,292,5.0,24.0,55,0.00,,,-99.99,Weather View 32 v60,2013-09-20 17:14:00,
2013-09-20 12:29:00,63.0,47.5,30.08,NW,315,5.0,24.0,57,0.00,,,-99.99,Weather View 32 v60,2013-09-20 17:29:00,
2013-09-20 12:44:00,63.0,46.1,30.07,WNW,292,2.0,24.0,54,0.00,,,-99.99,Weather View 32 v60,2013-09-20 17:44:00,
2013-09-20 12:55:00,63.0,46.1,30.07,WNW,292,2.0,24.0,54,0.00,,,-99.99,Weather View 32 v60,2013-09-20 17:55:00,
2013-09-20 13:14:00,63.0,46.5,30.07,NNW,337,11.0,20.0,55,0.00,,,-99.99,Weather View 32 v60,2013-09-20 18:14:00,
2013-09-20 13:29:00,64.0,46.5,30.06,WSW,247,0.0,19.0,53,0.00,,,-99.99,Weather View 32 v60,2013-09-20 18:29:00,
2013-09-20 13:44:00,65.0,46.9,30.05,WNW,292,3.0,19.0,52,0.00,,,-99.99,Weather View 32 v60,2013-09-20 18:44:00,
2013-09-20 13:56:00,65.0,46.9,30.05,WNW,292,3.0,19.0,52,0.00,,,-99.99,Weather View 32 v60,2013-09-20 18:56:00,
2013-09-20 14:14:00,66.0,46.2,30.04,WNW,292,1.0,17.0,49,0.00,,,-99.99,Weather View 32 v60,2013-09-20 19:14:00,
2013-09-20 14:29:00,65.0,45.3,30.04,NNW,337,3.0,16.0,49,0.00,,,-99.99,Weather View 32 v60,2013-09-20 19:29:00,
2013-09-20 14:44:00,65.0,44.8,30.03,NW,315,8.0,18.0,48,0.00,,,-99.99,Weather View 32 v60,2013-09-20 19:44:00,
2013-09-20 14:57:00,65.0,44.8,30.03,NW,315,8.0,18.0,48,0.00,,,-99.99,Weather View 32 v60,2013-09-20 19:57:00,
2013-09-20 15:14:00,66.0,43.4,30.02,NNE,22,6.0,19.0,44,0.00,,,-99.99,Weather View 32 v60,2013-09-20 20:14:00,
2013-09-20 15:29:00,68.0,44.6,30.02,SSW,202,0.0,19.0,43,0.00,,,-99.99,Weather View 32 v60,2013-09-20 20:29:00,
2013-09-20 15:44:00,67.0,43.1,30.02,NNW,337,8.0,19.0,42,0.00,,,-99.99,Weather View 32 v60,2013-09-20 20:44:00,
2013-09-20 15:57:00,67.0,43.1,30.02,NNW,337,8.0,19.0,42,0.00,,,-99.99,Weather View 32 v60,2013-09-20 20:57:00,
2013-09-20 16:14:00,68.0,43.4,30.01,NW,315,2.0,20.0,41,0.00,,,-99.99,Weather View 32 v60,2013-09-20 21:14:00,
2013-09-20 16:29:00,67.0,42.5,30.01,NW,315,4.0,20.0,41,0.00,,,-99.99,Weather View 32 v60,2013-09-20 21:29:00,
2013-09-20 16:44:00,69.0,44.9,30.00,North,360,0.0,20.0,42,0.00,,,-99.99,Weather View 32 v60,2013-09-20 21:44:00,
2013-09-20 16:58:00,69.0,44.9,30.00,North,360,0.0,20.0,42,0.00,,,-99.99,Weather View 32 v60,2013-09-20 21:58:00,
2013-09-20 17:14:00,67.0,42.5,30.01,NNE,22,10.0,19.0,41,0.00,,,-99.99,Weather View 32 v60,2013-09-20 22:14:00,
2013-09-20 17:29:00,67.0,43.1,30.00,WNW,292,0.0,19.0,42,0.00,,,-99.99,Weather View 32 v60,2013-09-20 22:29:00,
2013-09-20 17:44:00,67.0,43.7,30.00,WNW,292,0.0,19.0,43,0.00,,,-99.99,Weather View 32 v60,2013-09-20 22:44:00,
2013-09-20 17:58:00,67.0,43.7,30.00,WNW,292,0.0,19.0,43,0.00,,,-99.99,Weather View 32 v60,2013-09-20 22:58:00,
2013-09-20 18:14:00,65.0,39.4,30.01,WNW,292,1.0,17.0,39,0.00,,,-99.99,Weather View 32 v60,2013-09-20 23:14:00,
2013-09-20 18:29:00,65.0,40.7,30.01,NW,315,2.0,17.0,41,0.00,,,-99.99,Weather View 32 v60,2013-09-20 23:29:00,
2013-09-20 18:44:00,64.0,41.6,30.02,NNE,22,1.0,17.0,44,0.00,,,-99.99,Weather View 32 v60,2013-09-20 23:44:00,
2013-09-20 18:59:00,64.0,41.6,30.02,NNE,22,1.0,17.0,44,0.00,,,-99.99,Weather View 32 v60,2013-09-20 23:59:00,
2013-09-20 20:00:00,62.0,40.4,30.03,NW,315,2.0,17.0,45,0.00,,,-99.99,Weather View 32 v60,2013-09-21 01:00:00,
2013-09-20 22:29:00,44.0,40.1,30.13,NNE,22,0.0,0.0,86,0.00,,,-99.99,Weather View 32 v60,2013-09-21 03:29:00,
2013-09-20 22:44:00,43.0,38.8,30.12,NNE,22,0.0,0.0,85,0.00,,,-99.99,Weather View 32 v60,2013-09-21 03:44:00,
2013-09-20 22:59:00,43.0,38.2,30.13,NNE,22,0.0,0.0,83,0.00,,,-99.99,Weather View 32 v60,2013-09-21 03:59:00,
2013-09-20 23:02:00,43.0,38.2,30.13,NNE,22,0.0,0.0,83,0.00,,,-99.99,Weather View 32 v60,2013-09-21 04:02:00,
2013-09-20 23:14:00,43.0,37.9,30.13,NNE,22,0.0,0.0,82,0.00,,,-99.99,Weather View 32 v60,2013-09-21 04:14:00,
2013-09-20 23:29:00,42.0,37.2,30.14,NNE,22,0.0,0.0,83,0.00,,,-99.99,Weather View 32 v60,2013-09-21 04:29:00,
2013-09-20 23:44:00,41.0,36.2,30.14,NNE,22,0.0,0.0,83,0.00,,,-99.99,Weather View 32 v60,2013-09-21 04:44:00,
2013-09-20 23:59:00,41.0,35.6,30.14,NNE,22,0.0,0.0,81,0.00,,,-99.99,Weather View 32 v60,2013-09-21 04:59:00,